sat.trackr.live / text

‹ back to catalog

STARLINK-31044

NORAD 58589 · 2023-200A

PAYLOAD ACTIVE UNKNOWN

§ Identity

Operator
Country
US
Launch date
2023-12-19
Launch site
AFETR
Launch vehicle
Mass (kg)
RCS (m²)

Purposes: comms

External: N2YO · Heavens-Above · Gunter

§ Orbital elements

Epoch: 2026-05-25T03:55:51.966624Z

Period
94.27 min
Inclination
43.0009°
Eccentricity
0.0000735
Mean motion
15.27571640 rev/d
Perigee alt
482.6 km
Apogee alt
483.6 km
Semi-major
6,861.2 km
B*
1.0350e-4
RAAN
97.2021°
Arg perigee
252.5554°
Mean anomaly
107.5217°
Rev number
13,530

§ Raw data

STARLINK-310441 58589U 23200A   26145.16379591  .00002587  00000+0  10350-3 0  99942 58589  43.0009  97.2021 0000735 252.5554 107.5217 15.27571640135300

JSON: /api/v1/satellites/58589 · /tle

For live sub-satellite position, see the globe view (requires WebGL).

§ Visibility from observer

Set your observer location to see the next 7 days of passes ≥ 10°. The values pass through the URL so the page stays shareable.

No JS? Fill the form by hand. The geolocation button needs JavaScript.